Air Quality Table

TIMESTAMP NO2 O3 PM2.5 TEMP HUM AIRPRES WS WD NO
2021-07-28 07:00 32.71 ug/m3 72.41 ug/m3 12.01 ug/m3 28.19 C 31.52 % 1,003.04 mbar 0.78 m/s 179.37 Deg 1.92 ug/m3
2021-07-28 06:00 19.87 ug/m3 81.59 ug/m3 8.27 ug/m3 26.1 C 38.9 % 1,002.90 mbar 0.52 m/s 238.68 Deg 0.37 ug/m3
2021-07-28 05:00 8.89 ug/m3 91.99 ug/m3 7.08 ug/m3 25.56 C 50.5 % 1,002.76 mbar 0.86 m/s 332.58 Deg 0.03 ug/m3
2021-07-28 04:00 5.07 ug/m3 99.5 ug/m3 6.91 ug/m3 25.9 C 47.27 % 1,002.68 mbar 1.17 m/s 343.13 Deg 0.1 ug/m3
2021-07-28 03:00 6.68 ug/m3 96.89 ug/m3 6.15 ug/m3 26.12 C 41.95 % 1,002.89 mbar 1.08 m/s 342.68 Deg 0.09 ug/m3
2021-07-28 02:00 4.47 ug/m3 101.28 ug/m3 7.87 ug/m3 26.38 C 31.79 % 1,003.19 mbar 0.82 m/s 334.37 Deg -0.01 ug/m3
2021-07-28 01:00 20.96 ug/m3 73.47 ug/m3 11.2 ug/m3 26.39 C 30.18 % 1,003.50 mbar 0.43 m/s 290.65 Deg 0.14 ug/m3
2021-07-28 00:00 24.23 ug/m3 54.25 ug/m3 9.23 ug/m3 26.41 C 41.07 % 1,003.92 mbar 0.45 m/s 287.65 Deg 0.08 ug/m3
2021-07-27 23:00 12.87 ug/m3 81.32 ug/m3 12.54 ug/m3 27.47 C 38.96 % 1,004.12 mbar 0.41 m/s 239.71 Deg 0.1 ug/m3
2021-07-27 22:00 18.87 ug/m3 67.89 ug/m3 11.6 ug/m3 27.34 C 58.22 % 1,004.24 mbar 0.48 m/s 299.69 Deg 0.23 ug/m3
2021-07-27 21:00 12.88 ug/m3 73.83 ug/m3 9.86 ug/m3 27.73 C 62.07 % 1,004.13 mbar 0.61 m/s 222.59 Deg 0.15 ug/m3
2021-07-27 20:00 11.68 ug/m3 88.26 ug/m3 9.48 ug/m3 29.16 C 51.76 % 1,003.75 mbar 0.82 m/s 228.86 Deg 0.05 ug/m3
2021-07-27 19:00 8.45 ug/m3 111.07 ug/m3 10.16 ug/m3 30.15 C 39.56 % 1,003.63 mbar 0.9 m/s 168.7 Deg 0.17 ug/m3
2021-07-27 18:00 5.67 ug/m3 113.51 ug/m3 12.18 ug/m3 30.08 C 50.92 % 1,003.59 mbar 1.45 m/s 113.83 Deg 0.28 ug/m3
2021-07-27 17:00 6.04 ug/m3 110.85 ug/m3 12.58 ug/m3 30.65 C 51.22 % 1,003.76 mbar 1.76 m/s 20.26 Deg 0.47 ug/m3
2021-07-27 16:00 6.03 ug/m3 105.57 ug/m3 13.15 ug/m3 30.73 C 54.6 % 1,004.07 mbar 1.75 m/s 194.53 Deg 0.73 ug/m3
2021-07-27 15:00 4.72 ug/m3 108.18 ug/m3 10.63 ug/m3 31.22 C 48.61 % 1,004.30 mbar 1.89 m/s 14.45 Deg 0.55 ug/m3
2021-07-27 14:00 3.66 ug/m3 111.79 ug/m3 11.18 ug/m3 31.16 C 49.04 % 1,004.67 mbar 1.78 m/s 185.88 Deg 0.45 ug/m3
2021-07-27 13:00 4.88 ug/m3 110.89 ug/m3 15.04 ug/m3 30.48 C 53.53 % 1,005.18 mbar 1.99 m/s 178.97 Deg 0.67 ug/m3
2021-07-27 12:00 8.54 ug/m3 114.33 ug/m3 7.95 ug/m3 30.65 C 56.57 % 1,005.25 mbar 1.95 m/s 104.57 Deg 0.98 ug/m3
2021-07-27 11:00 8.31 ug/m3 109.34 ug/m3 7.44 ug/m3 31.95 C 38.12 % 1,005.26 mbar 1.22 m/s 305.01 Deg 1.01 ug/m3
2021-07-27 10:00 5.9 ug/m3 104.76 ug/m3 9.84 ug/m3 30.91 C 36.1 % 1,005.30 mbar 1.56 m/s 229.67 Deg 0.92 ug/m3
2021-07-27 09:00 6.19 ug/m3 99.52 ug/m3 15.23 ug/m3 28.76 C 57.21 % 1,005.28 mbar 1.73 m/s 221.7 Deg 0.91 ug/m3
2021-07-27 08:00 25.78 ug/m3 72.85 ug/m3 20.09 ug/m3 26.98 C 77.08 % 1,005.16 mbar 1.35 m/s 189.44 Deg 3.92 ug/m3
2021-07-27 07:00 46.56 ug/m3 30.48 ug/m3 17.99 ug/m3 25.64 C 90.88 % 1,004.93 mbar 0.51 m/s 204.67 Deg 9.16 ug/m3
2021-07-27 06:00 15.03 ug/m3 45.74 ug/m3 12.67 ug/m3 24.39 C 93.61 % 1,004.74 mbar 0.34 m/s 269.15 Deg 0.49 ug/m3
2021-07-27 05:00 8.04 ug/m3 51.36 ug/m3 10.48 ug/m3 24.33 C 92.37 % 1,004.31 mbar 0.29 m/s 283.52 Deg 0.03 ug/m3
2021-07-27 04:00 4.34 ug/m3 64.6 ug/m3 9.4 ug/m3 24.65 C 91.91 % 1,004.01 mbar 0.42 m/s 210.76 Deg 0.13 ug/m3
2021-07-27 03:00 1.51 ug/m3 76.39 ug/m3 8.44 ug/m3 25.16 C 90.87 % 1,004.02 mbar 0.74 m/s 174.27 Deg 0.13 ug/m3
2021-07-27 02:00 0.7 ug/m3 79.92 ug/m3 7.34 ug/m3 25.39 C 88.02 % 1,004.09 mbar 0.95 m/s 169.84 Deg -0.02 ug/m3
2021-07-27 01:00 0.93 ug/m3 83.29 ug/m3 8.42 ug/m3 25.5 C 86.17 % 1,004.28 mbar 1.29 m/s 178.43 Deg -0.03 ug/m3
2021-07-27 00:00 3.22 ug/m3 80.86 ug/m3 8.19 ug/m3 25.73 C 82.76 % 1,004.33 mbar 1.68 m/s 168.43 Deg 0.03 ug/m3
2021-07-26 23:00 2.57 ug/m3 76.33 ug/m3 9.72 ug/m3 25.85 C 82.82 % 1,004.21 mbar 1.62 m/s 175.06 Deg 0.16 ug/m3
2021-07-26 22:00 2.18 ug/m3 76.63 ug/m3 13.11 ug/m3 26.06 C 84.5 % 1,004.01 mbar 2.47 m/s 169.9 Deg 0.02 ug/m3
2021-07-26 21:00 4.05 ug/m3 75.57 ug/m3 9.04 ug/m3 26.42 C 82.12 % 1,003.81 mbar 2.37 m/s 169.75 Deg 0.21 ug/m3
2021-07-26 20:00 4.19 ug/m3 77.62 ug/m3 6.83 ug/m3 27.05 C 74.26 % 1,003.21 mbar 2.63 m/s 173.03 Deg 0.23 ug/m3
2021-07-26 19:00 3.64 ug/m3 80.52 ug/m3 9.21 ug/m3 27.8 C 64.51 % 1,002.86 mbar 2.52 m/s 178.07 Deg 0.28 ug/m3
2021-07-26 18:00 5.2 ug/m3 82.04 ug/m3 8.95 ug/m3 28.6 C 61.46 % 1,002.66 mbar 2.91 m/s 184.15 Deg 0.8 ug/m3
2021-07-26 17:00 6.45 ug/m3 87 ug/m3 14.72 ug/m3 29.75 C 51.5 % 1,002.71 mbar 2.81 m/s 185.35 Deg 1.15 ug/m3
2021-07-26 16:00 7.9 ug/m3 88.06 ug/m3 11.75 ug/m3 30.61 C 46.7 % 1,002.94 mbar 2.78 m/s 186.45 Deg 1.59 ug/m3
2021-07-26 15:00 7.4 ug/m3 92.93 ug/m3 9.12 ug/m3 31.64 C 36.86 % 1,003.22 mbar 2.32 m/s 194.14 Deg 1.47 ug/m3
2021-07-26 14:00 5.08 ug/m3 94.9 ug/m3 4.62 ug/m3 31.94 C 29.27 % 1,003.44 mbar 2.17 m/s 217.3 Deg 1.13 ug/m3
2021-07-26 13:00 4.33 ug/m3 93.64 ug/m3 9.04 ug/m3 31.39 C 33.29 % 1,003.59 mbar 2.28 m/s 211.58 Deg 0.84 ug/m3
2021-07-26 12:00 4.27 ug/m3 93.01 ug/m3 11.41 ug/m3 30.94 C 39.55 % 1,003.68 mbar 2.09 m/s 216.05 Deg 0.88 ug/m3
2021-07-26 11:00 5.06 ug/m3 93.96 ug/m3 12.26 ug/m3 30.11 C 44.13 % 1,003.87 mbar 2.1 m/s 207.77 Deg 1.11 ug/m3
2021-07-26 10:00 8.83 ug/m3 88.36 ug/m3 11.5 ug/m3 29.28 C 51.46 % 1,003.63 mbar 2.64 m/s 190.28 Deg 1.83 ug/m3
2021-07-26 09:00 10.11 ug/m3 83.72 ug/m3 12.35 ug/m3 28.86 C 53.19 % 1,003.36 mbar 2.18 m/s 201.68 Deg 2.15 ug/m3

It is to be noted that the data is provisional and subject to quality assurance procedures. For validated data kindly refer your request to contact.air@era.org.mt